Regional Weather Roundup
Issued by NWS

Home | Current Version | Previous Version | Text Only | Print | Product List | Glossary On
Versions: 1 2 3 4 5 6 7 8 9 10 11 12 13 14 15 16 17 18 19 20 21 22 23 24 25 26 27 28 29 30 31 32 33 34 35 36 37 38 39 40 41 42 43 44 45 46 47 48 49 50
121
ASUS44 KOUN 190510
RWROK

WEATHER ROUNDUP FOR OKLAHOMA
NATIONAL WEATHER SERVICE NORMAN OK
1100 PM CST SAT NOV 18 2017

NOTE: "FAIR" INDICATES FEW OR NO CLOUDS BELOW 12,000 FEET WITH NO
      SIGNIFICANT WEATHER AND/OR OBSTRUCTIONS TO VISIBILITY.

OKZ001>007-009>012-014-015-017-190600-
NORTHWEST OKLAHOMA AND THE PANHANDLE

CITY           SKY/WX    TMP DP  RH WIND       PRES   REMARKS
GAGE           CLEAR     30  17  58 SW7       30.32S WCI  23
GUYMON         CLOUDY    27  15  61 SW5       30.33R WCI  22
ENID/WOODRING  CLEAR     39  28  65 CALM      30.29R
$$

OKZ016-021>023-033>039-044-045-190600-
SOUTHWEST OKLAHOMA

CITY           SKY/WX    TMP DP  RH WIND       PRES   REMARKS
LAWTON/REGL    CLEAR     36  33  89 CALM      30.32R
LAWTON/FT SILL CLEAR     43  32  63 NW5       30.30R
FREDERICK      CLEAR     40  25  55 NW7       30.30R
CLINTON        CLEAR     38  21  50 NW8       30.33R WCI  32
HOBART         CLEAR     37  23  56 NW7       30.33R WCI  32
ALTUS AFB      CLEAR     41  19  40 NW8       30.33R
$$

OKZ018>020-024>031-190600-
CENTRAL OKLAHOMA

CITY           SKY/WX    TMP DP  RH WIND       PRES   REMARKS
OKLAHOMA CITY  CLEAR     38  27  64 NW6       30.29R WCI  33
OKC/WILEY POST CLEAR     43  28  55 NW8       30.29R
OKC/TINKER AFB CLEAR     43  28  55 NW5       30.28R
STILLWATER     CLEAR     39  32  76 NW6       30.28R WCI  35
GUTHRIE        CLEAR     40  28  62 W3        30.29R
$$

OKZ008-013-054>072-190600-
NORTHEAST OKLAHOMA

CITY           SKY/WX    TMP DP  RH WIND       PRES   REMARKS
TULSA          CLEAR     41  30  65 NW8       30.27R
TULSA/JONES    CLEAR     44  30  57 NW5       30.27R
PONCA CITY     CLEAR     38  25  59 N3        30.28R
BARTLESVILLE   CLEAR     39  27  62 CALM      30.28R
MUSKOGEE       CLEAR     41  33  73 NW8       30.26R
$$

OKZ032-040>043-046>053-073>077-190600-
SOUTH CENTRAL/SOUTHEAST OKLAHOMA

CITY           SKY/WX    TMP DP  RH WIND       PRES   REMARKS
ARDMORE/DWNTWN CLEAR     41  32  70 CALM      30.30R
MCALESTER      CLEAR     35  32  88 NW3       30.26R
$$





USA.gov is the U.S. government's official web portal to all federal, state and local government web resources and services.